Tracking 19288 objects as of 20-Nov-2018
HD Live streaming from Space Station
objects crossing your sky now

EKRAN 7

Track EKRAN 7 now!
EKRAN 7 is classified as:


NORAD ID: 12564
Int'l Code: 1981-061A
Perigee: 35,753.4 km
Apogee: 35,810.1 km
Inclination: 12.5 °
Period: 1,435.5 minutes
Semi major axis: 42152 km
RCS: 3.9811 m2 (large)
Launch date: June 26, 1981
Source: Commonwealth of Independent States (former USSR) (CIS)
Launch site: TYURATAM MISSILE AND SPACE COMPLEX (TTMTR)
aabbcc
Your satellite tracking list
Your tracking list is empty




NASA's NSSDC Master Catalog

Two Line Element Set (TLE):
1 12564U 81061A   18323.55341869 +.00000044 +00000-0 +00000-0 0  9990
2 12564 012.5267 322.1473 0006723 340.5920 013.0682 01.00314695101760
Source of the keplerian elements: AFSPC